Total_Precipitation_Accumulation
2.47 2.36 3.46 3.57 2.99 2.36 2.15 2.10 1.89 1.74 1.74 1.74 1.54 1.44 1.36 1.31 1.12 0.96 0.88 0.81 0.79 0.81 0.87 0.87 0.89 0.97 1.02 0.97 0.89 1.12 1.21 1.14 1.07 1.08 1.20 1.35 1.48 1.66 1.89 2.13 2.43 2.68 2.43
2.03 2.02 3.20 3.40 2.88 2.30 1.99 1.95 1.89 1.76 1.82 1.72 1.66 1.55 1.47 1.33 1.15 1.02 0.85 0.83 0.84 0.84 0.82 0.86 0.91 0.91 0.97 1.04 1.02 1.18 1.21 1.07 0.99 1.09 1.40 1.62 1.62 1.67 1.81 1.90 2.28 2.56 2.32
1.57 1.65 2.44 3.10 2.81 2.32 2.01 1.87 1.88 1.82 1.90 1.82 1.79 1.62 1.50 1.38 1.26 1.11 1.01 1.05 1.03 0.94 0.88 0.85 0.93 0.95 0.97 1.15 1.14 1.14 1.09 1.07 1.06 1.26 1.79 2.50 2.08 1.73 1.80 1.86 2.10 2.03 2.03
1.44 1.53 1.87 2.59 2.48 2.06 1.87 1.86 1.94 1.95 2.04 1.94 1.77 1.55 1.45 1.44 1.37 1.22 1.13 1.23 1.07 0.95 0.91 0.91 0.96 1.06 1.03 1.15 1.13 1.08 1.01 1.07 1.25 1.43 1.89 2.43 2.47 2.00 1.94 2.05 2.05 1.97 2.03
1.42 1.51 2.03 2.58 2.31 2.01 1.84 1.99 2.15 2.13 2.09 1.89 1.65 1.43 1.44 1.47 1.44 1.38 1.36 1.31 1.08 0.99 0.94 0.91 0.97 1.00 1.01 1.05 1.02 1.07 1.09 1.26 1.53 1.52 1.76 2.15 2.57 2.35 1.92 1.97 2.04 2.05 2.20
1.44 1.54 1.92 2.41 2.25 2.02 1.84 2.04 2.15 2.17 2.14 2.02 1.74 1.48 1.45 1.44 1.41 1.38 1.40 1.26 1.12 1.02 0.94 0.91 0.95 0.99 0.99 1.00 1.04 1.07 1.18 1.38 1.44 1.54 1.81 2.19 2.41 2.25 1.84 1.86 2.02 2.26 2.28
1.32 1.35 1.58 2.14 2.19 2.02 1.93 2.15 2.21 2.23 2.28 2.22 1.89 1.67 1.56 1.46 1.42 1.42 1.44 1.30 1.23 1.14 1.07 1.04 1.06 1.06 1.02 1.07 1.04 1.01 1.01 1.06 1.10 1.35 1.59 2.15 2.23 2.08 1.90 1.86 1.91 2.03 2.16
1.40 1.32 1.30 1.89 2.11 2.09 2.12 2.18 2.18 2.19 2.20 2.22 1.97 1.78 1.61 1.48 1.41 1.51 1.54 1.37 1.28 1.16 1.10 1.12 1.16 1.20 1.16 1.14 1.10 1.05 1.01 0.86 0.83 1.05 1.36 1.87 2.18 2.13 1.96 2.00 2.10 2.07 2.19
1.56 1.49 1.36 1.48 1.78 2.09 2.13 2.01 2.01 1.97 1.99 2.09 1.88 1.75 1.57 1.45 1.35 1.40 1.46 1.35 1.31 1.28 1.25 1.23 1.32 1.31 1.19 1.17 1.15 1.09 1.03 0.86 0.88 1.04 1.06 1.64 2.13 2.16 1.95 1.96 2.18 2.29 2.30
1.75 1.61 1.42 1.35 1.42 1.51 1.72 1.86 1.98 2.00 1.98 2.04 1.83 1.64 1.50 1.41 1.27 1.30 1.26 1.26 1.35 1.40 1.46 1.45 1.46 1.40 1.34 1.23 1.13 1.04 0.96 0.79 0.87 0.93 1.20 1.59 2.13 2.27 2.08 1.87 1.85 1.94 2.00
1.53 1.45 1.48 1.48 1.49 1.53 1.49 1.54 1.81 1.92 1.94 1.82 1.75 1.63 1.45 1.19 1.04 1.12 1.10 1.33 1.46 1.56 1.62 1.63 1.59 1.56 1.41 1.21 1.10 0.96 0.80 0.76 0.89 1.00 1.38 1.83 2.23 2.40 2.19 1.82 1.72 1.69 1.75
1.24 1.21 1.28 1.32 1.45 1.50 1.35 1.55 1.83 1.68 1.59 1.34 1.37 1.24 1.23 1.15 1.07 0.90 1.04 1.39 1.52 1.54 1.54 1.60 1.66 1.48 1.20 0.90 0.85 0.79 0.71 0.69 0.74 0.87 1.37 2.06 2.35 2.42 2.16 1.92 1.82 1.78 1.83
1.04 1.03 0.99 1.04 1.11 1.24 1.40 1.64 1.92 1.98 1.79 1.56 1.32 1.23 1.24 1.14 1.01 0.92 0.93 1.08 1.20 1.23 1.10 1.12 1.14 1.01 0.93 0.84 0.82 0.72 0.69 0.67 0.73 0.86 1.49 2.10 2.36 2.47 2.29 2.14 2.10 2.09 2.08
0.86 0.97 0.80 0.71 0.86 1.03 1.15 1.28 1.56 1.63 1.56 1.43 1.22 1.13 1.23 1.21 1.08 1.05 1.04 1.08 1.11 1.08 1.10 1.07 1.10 1.07 0.90 0.80 0.80 0.82 0.79 0.75 0.81 1.02 1.51 1.97 2.35 2.59 2.52 2.44 2.44 2.34 2.40
0.83 0.91 0.83 0.72 0.70 0.78 0.84 0.95 1.10 1.26 1.34 1.35 1.30 1.11 1.13 1.20 1.15 1.15 1.11 1.16 1.04 0.97 1.01 1.07 1.09 1.11 1.01 0.87 0.82 0.83 0.89 0.84 0.83 0.97 1.26 1.68 2.19 2.60 2.79 2.75 2.53 2.37 2.39
0.73 0.86 0.85 0.76 0.75 0.77 0.73 0.73 0.74 0.90 1.07 1.19 1.23 1.13 1.14 1.20 1.18 1.26 1.21 1.15 1.08 0.98 1.00 1.18 1.14 1.16 1.14 1.07 0.90 0.88 0.88 0.84 0.81 0.86 1.03 1.37 1.69 2.05 2.51 2.87 2.70 2.45 2.25
0.69 0.76 0.82 0.81 0.85 0.87 0.82 0.80 0.66 0.71 0.82 0.98 1.12 1.11 1.18 1.14 1.07 1.15 1.17 1.11 1.09 1.09 1.09 1.15 1.18 1.23 1.14 1.07 1.02 0.93 0.88 0.84 0.75 0.83 0.85 0.98 1.07 1.36 1.79 2.24 2.56 2.56 2.43
0.76 0.82 0.87 0.87 0.90 0.93 0.95 0.94 0.86 0.89 0.97 1.02 1.16 1.14 1.12 1.18 1.15 1.14 1.18 1.17 1.19 1.23 1.21 1.24 1.30 1.29 1.23 1.22 1.18 1.12 0.93 0.92 0.83 0.83 0.83 0.85 0.91 0.89 1.10 1.39 1.76 2.13 2.38
0.70 0.75 0.80 0.88 0.90 0.92 0.96 1.05 1.17 1.22 1.21 1.21 1.26 1.20 1.12 1.15 1.22 1.34 1.37 1.39 1.36 1.37 1.36 1.32 1.34 1.25 1.25 1.26 1.18 1.19 1.08 1.04 0.97 0.82 0.88 0.90 0.90 0.85 0.89 0.85 0.97 1.20 1.59
0.60 0.65 0.72 0.80 0.96 1.08 1.13 1.15 1.31 1.37 1.43 1.50 1.53 1.38 1.26 1.32 1.46 1.66 1.74 1.63 1.60 1.60 1.58 1.53 1.58 1.45 1.33 1.36 1.25 1.22 1.14 1.02 1.05 0.99 0.95 0.94 0.99 0.95 0.88 0.77 0.74 0.68 0.87
0.50 0.54 0.62 0.70 0.88 0.98 1.03 1.16 1.36 1.52 1.69 1.84 1.91 1.79 1.63 1.62 1.79 1.94 1.86 1.93 1.94 1.82 1.83 1.88 1.92 1.88 1.67 1.53 1.59 1.49 1.21 0.96 1.01 0.98 0.93 0.97 1.04 1.13 1.14 1.01 0.86 0.77 0.74
0.33 0.38 0.46 0.55 0.62 0.76 0.93 1.19 1.39 1.69 1.76 1.83 1.95 2.00 1.91 1.85 2.02 2.07 2.15 2.22 2.24 2.24 2.17 2.07 2.19 2.34 2.06 1.80 1.91 2.20 1.82 1.41 1.02 0.81 0.88 0.92 1.03 1.27 1.33 1.14 0.94 0.87 0.85
0.27 0.29 0.37 0.48 0.60 0.83 1.06 1.39 1.68 1.96 2.05 2.09 2.02 2.07 2.12 2.16 2.23 2.28 2.34 2.39 2.39 2.23 2.22 2.32 2.46 2.80 2.60 2.22 2.00 2.27 2.13 1.81 1.47 1.02 0.91 0.95 1.04 1.21 1.34 1.35 1.23 1.16 1.06
0.25 0.31 0.43 0.62 0.81 1.07 1.39 1.78 2.06 2.31 2.43 2.27 2.22 2.21 2.19 2.14 2.19 2.30 2.32 2.31 2.28 2.21 2.26 2.32 2.37 2.79 2.99 2.69 2.32 1.93 1.73 1.70 1.78 1.50 1.09 1.01 1.08 1.09 1.21 1.29 1.24 1.31 1.29
0.39 0.48 0.65 0.91 1.21 1.47 1.71 1.91 2.15 2.30 2.31 2.26 2.21 2.20 2.11 2.06 2.05 2.07 2.09 2.19 2.22 2.25 2.30 2.46 2.58 2.85 2.87 2.85 2.65 2.43 2.21 1.89 1.55 1.63 1.57 1.28 1.20 1.09 1.18 1.31 1.36 1.44 1.47
0.57 0.73 0.91 1.09 1.39 1.58 1.70 1.81 1.97 2.13 2.18 2.18 2.17 2.19 2.18 2.14 2.04 1.96 1.91 1.99 2.13 2.27 2.32 2.41 2.58 2.82 2.91 2.97 2.88 2.60 2.51 2.34 2.05 1.93 1.66 1.51 1.48 1.25 1.21 1.25 1.29 1.42 1.57